PHSIM LEXJ-LEMG

Flight info

Callsign PHSIM
Flight time 1h 37m
Altitude 25000
Route TITAN N864 RATAS/N0313F270 N864 VULPE
Aircraft TBM9/L-SDFGRWY/S

Departure

Time 2026-04-21 16:33
Airport Seve Ballesteros-Santander Airport (LEXJ)

Arrival

Time 2026-04-21 18:10
Airport Málaga-Costa del Sol Airport (LEMG)
Time Latitude Longitude Altitude Speed Heading
2026-04-21 16:14 43.42498 -3.82394 15 ft 0 kts 110°
2026-04-21 16:29 43.42497 -3.82388 15 ft 6 kts 107°
2026-04-21 16:29 43.42490 -3.82192 15 ft 27 kts 99°
2026-04-21 16:30 43.42534 -3.82004 15 ft 20 kts 89°
2026-04-21 16:30 43.42482 -3.81775 16 ft 33 kts 112°
2026-04-21 16:30 43.42392 -3.81450 16 ft 35 kts 113°
2026-04-21 16:30 43.42416 -3.81331 16 ft 14 kts 21°
2026-04-21 16:31 43.42481 -3.81258 18 ft 12 kts 62°
2026-04-21 16:31 43.42459 -3.81074 17 ft 30 kts 112°
2026-04-21 16:31 43.42375 -3.80786 16 ft 38 kts 111°
2026-04-21 16:31 43.42356 -3.80684 15 ft 2 kts 323°
2026-04-21 16:32 43.42360 -3.80711 15 ft 0 kts 284°
2026-04-21 16:32 43.42393 -3.80830 16 ft 42 kts 293°
2026-04-21 16:33 43.42563 -3.81481 53 ft 97 kts 287°
2026-04-21 16:33 43.42718 -3.82436 441 ft 103 kts 283°
2026-04-21 16:33 43.42968 -3.83364 880 ft 105 kts 296°
2026-04-21 16:33 43.43271 -3.84291 1321 ft 107 kts 291°
2026-04-21 16:34 43.43552 -3.85229 1795 ft 105 kts 289°
2026-04-21 16:34 43.43819 -3.86153 2271 ft 103 kts 289°
2026-04-21 16:34 43.44074 -3.87070 2739 ft 104 kts 288°
2026-04-21 16:34 43.44356 -3.88061 3112 ft 117 kts 289°
2026-04-21 16:35 43.44652 -3.89099 3642 ft 116 kts 287°
2026-04-21 16:35 43.44960 -3.90217 4030 ft 131 kts 288°
2026-04-21 16:35 43.45279 -3.91390 4606 ft 130 kts 287°
2026-04-21 16:35 43.45597 -3.92605 5030 ft 142 kts 287°
2026-04-21 16:36 43.45938 -3.93892 5531 ft 147 kts 287°
2026-04-21 16:36 43.46299 -3.95243 6005 ft 155 kts 287°
2026-04-21 16:36 43.46669 -3.96640 6569 ft 157 kts 287°
2026-04-21 16:36 43.47068 -3.98152 6828 ft 180 kts 287°
2026-04-21 16:37 43.47530 -3.99883 6997 ft 202 kts 288°
2026-04-21 16:37 43.48015 -4.01707 7475 ft 203 kts 288°
2026-04-21 16:37 43.48473 -4.03542 7976 ft 203 kts 281°
2026-04-21 16:37 43.48558 -4.05460 8474 ft 201 kts 262°
2026-04-21 16:38 43.48202 -4.07309 8980 ft 200 kts 245°
2026-04-21 16:38 43.47443 -4.08904 9495 ft 200 kts 227°
2026-04-21 16:38 43.46352 -4.10092 9969 ft 202 kts 210°
2026-04-21 16:38 43.44983 -4.10539 10404 ft 206 kts 184°
2026-04-21 16:39 43.43539 -4.10569 10849 ft 208 kts 184°
2026-04-21 16:39 43.42080 -4.10617 11299 ft 210 kts 184°
2026-04-21 16:39 43.40612 -4.10666 11751 ft 212 kts 184°
2026-04-21 16:39 43.39128 -4.10717 12211 ft 214 kts 184°
2026-04-21 16:40 43.37631 -4.10766 12674 ft 216 kts 184°
2026-04-21 16:40 43.36122 -4.10815 13144 ft 218 kts 184°
2026-04-21 16:40 43.34596 -4.10867 13608 ft 220 kts 184°
2026-04-21 16:40 43.33063 -4.10919 14024 ft 221 kts 183°
2026-04-21 16:41 43.32043 -4.10953 14309 ft 222 kts 184°
2026-04-21 16:41 43.29972 -4.11024 14884 ft 223 kts 183°
2026-04-21 16:41 43.28420 -4.11076 15320 ft 223 kts 184°
2026-04-21 16:41 43.26861 -4.11128 15753 ft 224 kts 184°
2026-04-21 16:42 43.25296 -4.11181 16177 ft 226 kts 184°
2026-04-21 16:42 43.23723 -4.11234 16613 ft 227 kts 184°
2026-04-21 16:42 43.22143 -4.11287 17062 ft 228 kts 184°
2026-04-21 16:42 43.20560 -4.11340 17509 ft 228 kts 184°
2026-04-21 16:43 43.18969 -4.11393 17923 ft 230 kts 184°
2026-04-21 16:43 43.17367 -4.11447 18330 ft 231 kts 184°
2026-04-21 16:43 43.15759 -4.11501 18703 ft 232 kts 184°
2026-04-21 16:43 43.14138 -4.11555 19077 ft 234 kts 184°
2026-04-21 16:44 43.12501 -4.11610 19428 ft 236 kts 184°
2026-04-21 16:44 43.10855 -4.11665 19795 ft 237 kts 184°
2026-04-21 16:44 43.09198 -4.11721 20154 ft 238 kts 184°
2026-04-21 16:44 43.07534 -4.11777 20511 ft 240 kts 184°
2026-04-21 16:45 43.05856 -4.11833 20848 ft 242 kts 184°
2026-04-21 16:45 43.04194 -4.11887 21203 ft 243 kts 184°
2026-04-21 16:45 43.02497 -4.11944 21590 ft 245 kts 184°
2026-04-21 16:45 43.00791 -4.12001 21980 ft 246 kts 184°
2026-04-21 16:46 42.99072 -4.12059 22366 ft 248 kts 184°
2026-04-21 16:46 42.97341 -4.12116 22756 ft 250 kts 184°
2026-04-21 16:46 42.95599 -4.12175 23131 ft 251 kts 184°
2026-04-21 16:46 42.93845 -4.12232 23502 ft 253 kts 184°
2026-04-21 16:47 42.92080 -4.12290 23817 ft 254 kts 184°
2026-04-21 16:47 42.90294 -4.12351 24061 ft 259 kts 184°
2026-04-21 16:47 42.88478 -4.12414 24303 ft 263 kts 184°
2026-04-21 16:47 42.86641 -4.12474 24541 ft 267 kts 185°
2026-04-21 16:48 42.84773 -4.12534 24782 ft 269 kts 184°
2026-04-21 16:48 42.82863 -4.12599 24831 ft 279 kts 185°
2026-04-21 16:48 42.80889 -4.12670 24838 ft 288 kts 184°
2026-04-21 16:48 42.78867 -4.12737 24846 ft 294 kts 184°
2026-04-21 16:49 42.76806 -4.12803 24845 ft 299 kts 184°
2026-04-21 16:49 42.74722 -4.12871 24843 ft 302 kts 184°
2026-04-21 16:49 42.72577 -4.12942 24847 ft 305 kts 184°
2026-04-21 16:49 42.70480 -4.13011 24848 ft 306 kts 184°
2026-04-21 16:50 42.68345 -4.13081 24849 ft 308 kts 184°
2026-04-21 16:50 42.66201 -4.13152 24849 ft 309 kts 184°
2026-04-21 16:50 42.64053 -4.13223 24854 ft 308 kts 184°
2026-04-21 16:50 42.61912 -4.13293 24850 ft 307 kts 184°
2026-04-21 16:51 42.59778 -4.13362 24847 ft 307 kts 184°
2026-04-21 16:51 42.57635 -4.13433 24848 ft 307 kts 184°
2026-04-21 16:51 42.55499 -4.13504 24846 ft 307 kts 184°
2026-04-21 16:51 42.53363 -4.13574 24846 ft 307 kts 184°
2026-04-21 16:52 42.51228 -4.13644 24843 ft 307 kts 184°
2026-04-21 16:52 42.49096 -4.13713 24845 ft 307 kts 184°
2026-04-21 16:52 42.47682 -4.13759 24844 ft 307 kts 184°
2026-04-21 16:52 42.44828 -4.13853 24845 ft 307 kts 184°
2026-04-21 16:53 42.42693 -4.13923 24843 ft 307 kts 184°
2026-04-21 16:53 42.40560 -4.13993 24843 ft 307 kts 184°
2026-04-21 16:53 42.38427 -4.14063 24843 ft 307 kts 184°
2026-04-21 16:53 42.36294 -4.14132 24843 ft 307 kts 184°
2026-04-21 16:54 42.34161 -4.14202 24843 ft 307 kts 184°
2026-04-21 16:54 42.32028 -4.14271 24843 ft 307 kts 184°
2026-04-21 16:54 42.29895 -4.14341 24843 ft 307 kts 184°
2026-04-21 16:54 42.28479 -4.14388 24843 ft 307 kts 185°
2026-04-21 16:55 42.26344 -4.14456 24843 ft 307 kts 185°
2026-04-21 16:55 42.24211 -4.14525 24844 ft 307 kts 184°
2026-04-21 16:55 42.21380 -4.14618 24845 ft 307 kts 185°
2026-04-21 16:55 42.19245 -4.14688 24843 ft 307 kts 184°
2026-04-21 16:56 42.17804 -4.14734 24840 ft 307 kts 185°
2026-04-21 16:56 42.15674 -4.14802 24844 ft 306 kts 185°
2026-04-21 16:56 42.13547 -4.14872 24842 ft 305 kts 185°
2026-04-21 16:56 42.11428 -4.14941 24849 ft 305 kts 185°
2026-04-21 16:57 42.09310 -4.15008 24850 ft 304 kts 185°
2026-04-21 16:57 42.07193 -4.15076 24847 ft 304 kts 185°
2026-04-21 16:57 42.05079 -4.15146 24851 ft 304 kts 185°
2026-04-21 16:57 42.02966 -4.15214 24848 ft 304 kts 185°
2026-04-21 16:58 42.00853 -4.15282 24849 ft 304 kts 185°
2026-04-21 16:58 41.98740 -4.15350 24851 ft 304 kts 185°
2026-04-21 16:58 41.96628 -4.15418 24850 ft 304 kts 185°
2026-04-21 16:58 41.94541 -4.15485 24852 ft 304 kts 185°
2026-04-21 16:59 41.92432 -4.15553 24853 ft 303 kts 185°
2026-04-21 16:59 41.90318 -4.15621 24851 ft 304 kts 185°
2026-04-21 16:59 41.88209 -4.15690 24854 ft 304 kts 185°
2026-04-21 16:59 41.86097 -4.15757 24855 ft 304 kts 185°
2026-04-21 17:00 41.83984 -4.15824 24853 ft 304 kts 185°
2026-04-21 17:00 41.81871 -4.15892 24852 ft 304 kts 185°
2026-04-21 17:00 41.80443 -4.15938 24857 ft 304 kts 185°
2026-04-21 17:00 41.77645 -4.16028 24857 ft 304 kts 185°
2026-04-21 17:01 41.75533 -4.16096 24853 ft 304 kts 185°
2026-04-21 17:01 41.73421 -4.16162 24859 ft 304 kts 185°
2026-04-21 17:01 41.71308 -4.16230 24862 ft 304 kts 185°
2026-04-21 17:01 41.69195 -4.16299 24859 ft 304 kts 185°
2026-04-21 17:02 41.67082 -4.16366 24860 ft 303 kts 185°
2026-04-21 17:02 41.64971 -4.16432 24865 ft 303 kts 185°
2026-04-21 17:02 41.62862 -4.16500 24865 ft 304 kts 185°
2026-04-21 17:02 41.60744 -4.16567 24862 ft 304 kts 185°
2026-04-21 17:03 41.58631 -4.16636 24865 ft 304 kts 185°
2026-04-21 17:03 41.56519 -4.16702 24864 ft 304 kts 185°
2026-04-21 17:03 41.54407 -4.16769 24865 ft 304 kts 185°
2026-04-21 17:03 41.52298 -4.16837 24871 ft 303 kts 185°
2026-04-21 17:04 41.50187 -4.16906 24871 ft 303 kts 185°
2026-04-21 17:04 41.48089 -4.17122 24870 ft 302 kts 188°
2026-04-21 17:04 41.45993 -4.17368 24872 ft 303 kts 188°
2026-04-21 17:04 41.43891 -4.17602 24869 ft 303 kts 188°
2026-04-21 17:05 41.41795 -4.17835 24870 ft 303 kts 188°
2026-04-21 17:05 41.39695 -4.18070 24879 ft 302 kts 188°
2026-04-21 17:05 41.37596 -4.18307 24871 ft 303 kts 188°
2026-04-21 17:05 41.35523 -4.18540 24876 ft 303 kts 188°
2026-04-21 17:06 41.33424 -4.18775 24882 ft 303 kts 188°
2026-04-21 17:06 41.31321 -4.19011 24888 ft 303 kts 188°
2026-04-21 17:06 41.29225 -4.19245 24888 ft 303 kts 188°
2026-04-21 17:06 41.27125 -4.19481 24886 ft 303 kts 188°
2026-04-21 17:07 41.25028 -4.19717 24887 ft 303 kts 188°
2026-04-21 17:07 41.22924 -4.19949 24891 ft 303 kts 188°
2026-04-21 17:07 41.20826 -4.20184 24888 ft 303 kts 188°
2026-04-21 17:07 41.18725 -4.20419 24888 ft 303 kts 188°
2026-04-21 17:08 41.16625 -4.20653 24889 ft 303 kts 188°
2026-04-21 17:08 41.14526 -4.20887 24895 ft 303 kts 188°
2026-04-21 17:08 41.12427 -4.21120 24899 ft 303 kts 188°
2026-04-21 17:08 41.10329 -4.21354 24897 ft 303 kts 188°
2026-04-21 17:09 41.06134 -4.21820 24903 ft 302 kts 188°
2026-04-21 17:09 41.04038 -4.22052 24902 ft 302 kts 188°
2026-04-21 17:09 41.01939 -4.22286 24902 ft 302 kts 188°
2026-04-21 17:10 40.99842 -4.22519 24900 ft 302 kts 188°
2026-04-21 17:10 40.97746 -4.22750 24902 ft 302 kts 188°
2026-04-21 17:10 40.95652 -4.22982 24902 ft 302 kts 188°
2026-04-21 17:10 40.93559 -4.23214 24903 ft 302 kts 188°
2026-04-21 17:11 40.91467 -4.23446 24905 ft 302 kts 188°
2026-04-21 17:11 40.89375 -4.23677 24908 ft 302 kts 188°
2026-04-21 17:11 40.87283 -4.23907 24909 ft 302 kts 188°
2026-04-21 17:11 40.85192 -4.24138 24904 ft 302 kts 188°
2026-04-21 17:12 40.83101 -4.24369 24906 ft 302 kts 188°
2026-04-21 17:12 40.81005 -4.24600 24904 ft 302 kts 188°
2026-04-21 17:12 40.78942 -4.24827 24904 ft 302 kts 188°
2026-04-21 17:12 40.76848 -4.25057 24905 ft 302 kts 188°
2026-04-21 17:13 40.74756 -4.25288 24909 ft 302 kts 188°
2026-04-21 17:13 40.72665 -4.25520 24904 ft 302 kts 188°
2026-04-21 17:13 40.70573 -4.25748 24902 ft 302 kts 188°
2026-04-21 17:13 40.68482 -4.25977 24897 ft 302 kts 188°
2026-04-21 17:14 40.66391 -4.26207 24901 ft 302 kts 188°
2026-04-21 17:14 40.64300 -4.26436 24899 ft 301 kts 188°
2026-04-21 17:14 40.62206 -4.26665 24902 ft 302 kts 188°
2026-04-21 17:14 40.60116 -4.26895 24897 ft 302 kts 189°
2026-04-21 17:15 40.58023 -4.27125 24894 ft 302 kts 188°
2026-04-21 17:15 40.55932 -4.27353 24892 ft 301 kts 188°
2026-04-21 17:15 40.53845 -4.27580 24886 ft 301 kts 188°
2026-04-21 17:15 40.51760 -4.27808 24886 ft 300 kts 188°
2026-04-21 17:16 40.49677 -4.28036 24887 ft 300 kts 188°
2026-04-21 17:16 40.47593 -4.28264 24884 ft 301 kts 188°
2026-04-21 17:16 40.45504 -4.28492 24884 ft 301 kts 188°
2026-04-21 17:16 40.43418 -4.28719 24879 ft 301 kts 188°
2026-04-21 17:17 40.41329 -4.28946 24882 ft 301 kts 188°
2026-04-21 17:17 40.39246 -4.29172 24880 ft 300 kts 189°
2026-04-21 17:17 40.37162 -4.29400 24874 ft 301 kts 188°
2026-04-21 17:17 40.35074 -4.29628 24872 ft 301 kts 188°
2026-04-21 17:18 40.33015 -4.29851 24869 ft 301 kts 188°
2026-04-21 17:18 40.30930 -4.30077 24873 ft 301 kts 188°
2026-04-21 17:18 40.28845 -4.30302 24868 ft 300 kts 188°
2026-04-21 17:18 40.26762 -4.30529 24861 ft 300 kts 188°
2026-04-21 17:19 40.24683 -4.30754 24858 ft 300 kts 188°
2026-04-21 17:19 40.22604 -4.30979 24858 ft 300 kts 188°
2026-04-21 17:19 40.20526 -4.31204 24854 ft 300 kts 188°
2026-04-21 17:19 40.18448 -4.31429 24857 ft 300 kts 188°
2026-04-21 17:20 40.16370 -4.31654 24853 ft 300 kts 188°
2026-04-21 17:20 40.14293 -4.31878 24857 ft 300 kts 188°
2026-04-21 17:20 40.12216 -4.32101 24855 ft 299 kts 188°
2026-04-21 17:20 40.10142 -4.32326 24850 ft 299 kts 188°
2026-04-21 17:21 40.08069 -4.32551 24856 ft 299 kts 188°
2026-04-21 17:21 40.05997 -4.32773 24846 ft 299 kts 188°
2026-04-21 17:21 40.03927 -4.32996 24846 ft 299 kts 188°
2026-04-21 17:21 40.01857 -4.33219 24847 ft 298 kts 188°
2026-04-21 17:22 40.00460 -4.33370 24849 ft 298 kts 188°
2026-04-21 17:22 39.97723 -4.33663 24845 ft 298 kts 188°
2026-04-21 17:22 39.95673 -4.34011 24849 ft 296 kts 193°
2026-04-21 17:22 39.93645 -4.34466 24850 ft 296 kts 193°
2026-04-21 17:23 39.91614 -4.34901 24848 ft 296 kts 193°
2026-04-21 17:23 39.89581 -4.35333 24847 ft 296 kts 193°
2026-04-21 17:23 39.87549 -4.35771 24851 ft 296 kts 193°
2026-04-21 17:23 39.85516 -4.36211 24847 ft 296 kts 193°
2026-04-21 17:24 39.83485 -4.36648 24847 ft 296 kts 193°
2026-04-21 17:24 39.81453 -4.37084 24851 ft 296 kts 193°
2026-04-21 17:24 39.79423 -4.37519 24851 ft 296 kts 193°
2026-04-21 17:24 39.77394 -4.37955 24844 ft 295 kts 193°
2026-04-21 17:25 39.75368 -4.38391 24846 ft 295 kts 193°
2026-04-21 17:25 39.73342 -4.38824 24847 ft 295 kts 193°
2026-04-21 17:25 39.71317 -4.39256 24846 ft 295 kts 193°
2026-04-21 17:25 39.69291 -4.39690 24847 ft 295 kts 193°
2026-04-21 17:26 39.67263 -4.40111 24849 ft 295 kts 192°
2026-04-21 17:26 39.65238 -4.40538 24849 ft 295 kts 193°
2026-04-21 17:26 39.63216 -4.40978 24846 ft 295 kts 193°
2026-04-21 17:26 39.61194 -4.41413 24846 ft 295 kts 193°
2026-04-21 17:27 39.59172 -4.41842 24848 ft 294 kts 193°
2026-04-21 17:27 39.57177 -4.42265 24849 ft 294 kts 193°
2026-04-21 17:27 39.55160 -4.42697 24848 ft 294 kts 193°
2026-04-21 17:27 39.53148 -4.43124 24850 ft 293 kts 193°
2026-04-21 17:28 39.51136 -4.43550 24853 ft 294 kts 193°
2026-04-21 17:28 39.49119 -4.43982 24852 ft 294 kts 193°
2026-04-21 17:28 39.47100 -4.44412 24851 ft 294 kts 193°
2026-04-21 17:28 39.45085 -4.44838 24852 ft 294 kts 193°
2026-04-21 17:29 39.43069 -4.45266 24850 ft 293 kts 193°
2026-04-21 17:29 39.41055 -4.45693 24851 ft 293 kts 193°
2026-04-21 17:29 39.39041 -4.46119 24851 ft 293 kts 193°
2026-04-21 17:29 39.37026 -4.46547 24849 ft 293 kts 193°
2026-04-21 17:30 39.35014 -4.46972 24853 ft 293 kts 193°
2026-04-21 17:30 39.33005 -4.47397 24846 ft 293 kts 193°
2026-04-21 17:30 39.30998 -4.47821 24847 ft 292 kts 193°
2026-04-21 17:30 39.28992 -4.48245 24851 ft 292 kts 193°
2026-04-21 17:31 39.26985 -4.48669 24850 ft 292 kts 193°
2026-04-21 17:31 39.24980 -4.49093 24847 ft 292 kts 193°
2026-04-21 17:31 39.22977 -4.49515 24848 ft 292 kts 193°
2026-04-21 17:31 39.20973 -4.49938 24849 ft 292 kts 193°
2026-04-21 17:32 39.19648 -4.50220 24849 ft 291 kts 193°
2026-04-21 17:32 39.16975 -4.50797 24848 ft 291 kts 193°
2026-04-21 17:32 39.14972 -4.51212 24847 ft 291 kts 193°
2026-04-21 17:32 39.12972 -4.51626 24842 ft 291 kts 193°
2026-04-21 17:33 39.10977 -4.52048 24841 ft 291 kts 193°
2026-04-21 17:33 39.08982 -4.52469 24838 ft 291 kts 193°
2026-04-21 17:33 39.06986 -4.52887 24841 ft 291 kts 193°
2026-04-21 17:33 39.04992 -4.53304 24847 ft 290 kts 193°
2026-04-21 17:34 39.02999 -4.53723 24837 ft 290 kts 193°
2026-04-21 17:34 39.01013 -4.54139 24841 ft 289 kts 193°
2026-04-21 17:34 38.99028 -4.54555 24835 ft 289 kts 193°
2026-04-21 17:34 38.97041 -4.54971 24834 ft 289 kts 193°
2026-04-21 17:35 38.95055 -4.55386 24842 ft 289 kts 193°
2026-04-21 17:35 38.93068 -4.55802 24836 ft 289 kts 193°
2026-04-21 17:35 38.91108 -4.56213 24838 ft 289 kts 193°
2026-04-21 17:35 38.89122 -4.56626 24837 ft 289 kts 193°
2026-04-21 17:36 38.87136 -4.57042 24832 ft 289 kts 193°
2026-04-21 17:36 38.85153 -4.57455 24832 ft 289 kts 193°
2026-04-21 17:36 38.83170 -4.57867 24829 ft 289 kts 193°
2026-04-21 17:36 38.81189 -4.58280 24830 ft 288 kts 193°
2026-04-21 17:37 38.79208 -4.58693 24832 ft 288 kts 193°
2026-04-21 17:37 38.77231 -4.59105 24833 ft 288 kts 193°
2026-04-21 17:37 38.75894 -4.59383 24832 ft 288 kts 193°
2026-04-21 17:37 38.73275 -4.59928 24832 ft 288 kts 193°
2026-04-21 17:38 38.71298 -4.60338 24832 ft 288 kts 193°
2026-04-21 17:38 38.69324 -4.60750 24833 ft 288 kts 193°
2026-04-21 17:38 38.67346 -4.61159 24830 ft 288 kts 193°
2026-04-21 17:38 38.65371 -4.61569 24841 ft 288 kts 193°
2026-04-21 17:39 38.63397 -4.61979 24838 ft 287 kts 193°
2026-04-21 17:39 38.61424 -4.62387 24830 ft 287 kts 193°
2026-04-21 17:39 38.59453 -4.62795 24831 ft 287 kts 193°
2026-04-21 17:39 38.57486 -4.63203 24831 ft 287 kts 193°
2026-04-21 17:40 38.55515 -4.63612 24846 ft 286 kts 193°
2026-04-21 17:40 38.53562 -4.64015 24848 ft 284 kts 193°
2026-04-21 17:40 38.51619 -4.64416 24842 ft 282 kts 193°
2026-04-21 17:40 38.49687 -4.64814 24843 ft 281 kts 193°
2026-04-21 17:41 38.47762 -4.65212 24841 ft 280 kts 193°
2026-04-21 17:41 38.45828 -4.65613 24581 ft 287 kts 193°
2026-04-21 17:41 38.43816 -4.66035 24109 ft 298 kts 193°
2026-04-21 17:41 38.41759 -4.66459 23654 ft 300 kts 193°
2026-04-21 17:42 38.39702 -4.66880 23157 ft 299 kts 193°
2026-04-21 17:42 38.37652 -4.67299 22619 ft 298 kts 193°
2026-04-21 17:42 38.35611 -4.67719 22083 ft 296 kts 193°
2026-04-21 17:42 38.33580 -4.68138 21562 ft 295 kts 192°
2026-04-21 17:43 38.32235 -4.68414 21223 ft 295 kts 192°
2026-04-21 17:43 38.30218 -4.68829 20715 ft 293 kts 192°
2026-04-21 17:43 38.28206 -4.69242 20243 ft 292 kts 192°
2026-04-21 17:43 38.26215 -4.69648 19849 ft 288 kts 192°
2026-04-21 17:44 38.24237 -4.70053 19437 ft 287 kts 192°
2026-04-21 17:44 38.22271 -4.70457 19043 ft 285 kts 192°
2026-04-21 17:44 38.20319 -4.70859 18667 ft 283 kts 192°
2026-04-21 17:44 38.18376 -4.71256 18290 ft 282 kts 192°
2026-04-21 17:45 38.16443 -4.71649 17887 ft 281 kts 192°
2026-04-21 17:45 38.14520 -4.72044 17461 ft 279 kts 192°
2026-04-21 17:45 38.12608 -4.72438 17043 ft 278 kts 193°
2026-04-21 17:45 38.10706 -4.72827 16628 ft 276 kts 193°
2026-04-21 17:46 38.08820 -4.73209 16237 ft 273 kts 193°
2026-04-21 17:46 38.06953 -4.73587 15861 ft 271 kts 193°
2026-04-21 17:46 38.05088 -4.73966 15489 ft 272 kts 194°
2026-04-21 17:46 38.03214 -4.74358 15115 ft 274 kts 194°
2026-04-21 17:47 38.01338 -4.74741 14830 ft 271 kts 194°
2026-04-21 17:47 37.99511 -4.75104 14810 ft 261 kts 194°
2026-04-21 17:47 37.97737 -4.75459 14810 ft 255 kts 194°
2026-04-21 17:47 37.95992 -4.75816 14803 ft 253 kts 194°
2026-04-21 17:48 37.94282 -4.76164 14804 ft 251 kts 194°
2026-04-21 17:48 37.92554 -4.76513 14797 ft 251 kts 193°
2026-04-21 17:48 37.90798 -4.76651 14794 ft 254 kts 188°
2026-04-21 17:48 37.89032 -4.76717 14792 ft 254 kts 188°
2026-04-21 17:49 37.87268 -4.76783 14796 ft 254 kts 188°
2026-04-21 17:49 37.85506 -4.76859 14795 ft 253 kts 188°
2026-04-21 17:49 37.83741 -4.76934 14796 ft 253 kts 188°
2026-04-21 17:49 37.81978 -4.77006 14795 ft 254 kts 188°
2026-04-21 17:50 37.80214 -4.77079 14796 ft 254 kts 188°
2026-04-21 17:50 37.78448 -4.77152 14792 ft 255 kts 188°
2026-04-21 17:50 37.76675 -4.77224 14797 ft 256 kts 188°
2026-04-21 17:50 37.74891 -4.77301 14796 ft 257 kts 188°
2026-04-21 17:51 37.73104 -4.77375 14800 ft 257 kts 188°
2026-04-21 17:51 37.71312 -4.77449 14800 ft 258 kts 187°
2026-04-21 17:51 37.69513 -4.77522 14802 ft 259 kts 188°
2026-04-21 17:51 37.67705 -4.77597 14803 ft 260 kts 188°
2026-04-21 17:52 37.65893 -4.77671 14804 ft 261 kts 188°
2026-04-21 17:52 37.64077 -4.77747 14807 ft 261 kts 188°
2026-04-21 17:52 37.62260 -4.77823 14805 ft 261 kts 188°
2026-04-21 17:52 37.60438 -4.77897 14807 ft 262 kts 188°
2026-04-21 17:53 37.58617 -4.77972 14809 ft 262 kts 188°
2026-04-21 17:53 37.56795 -4.78048 14808 ft 262 kts 188°
2026-04-21 17:53 37.54973 -4.78122 14814 ft 262 kts 188°
2026-04-21 17:53 37.53149 -4.78197 14815 ft 262 kts 188°
2026-04-21 17:54 37.51324 -4.78273 14813 ft 262 kts 188°
2026-04-21 17:54 37.49500 -4.78349 14816 ft 262 kts 188°
2026-04-21 17:54 37.47678 -4.78424 14647 ft 261 kts 188°
2026-04-21 17:54 37.45874 -4.78495 14439 ft 259 kts 188°
2026-04-21 17:55 37.44084 -4.78572 14103 ft 262 kts 188°
2026-04-21 17:55 37.42259 -4.78649 13757 ft 263 kts 188°
2026-04-21 17:55 37.40422 -4.78724 13394 ft 264 kts 188°
2026-04-21 17:55 37.38592 -4.78798 13031 ft 262 kts 188°
2026-04-21 17:56 37.36785 -4.78869 12692 ft 260 kts 188°
2026-04-21 17:56 37.34980 -4.78944 12350 ft 259 kts 188°
2026-04-21 17:56 37.33175 -4.79019 12011 ft 259 kts 188°
2026-04-21 17:56 37.31373 -4.79093 11669 ft 259 kts 188°
2026-04-21 17:57 37.29571 -4.79167 11325 ft 259 kts 187°
2026-04-21 17:57 37.27775 -4.79240 10989 ft 258 kts 187°
2026-04-21 17:57 37.25984 -4.79313 10649 ft 256 kts 187°
2026-04-21 17:57 37.24217 -4.79383 10310 ft 252 kts 187°
2026-04-21 17:58 37.22473 -4.79454 9980 ft 250 kts 187°
2026-04-21 17:58 37.20740 -4.79525 9645 ft 249 kts 187°
2026-04-21 17:58 37.19014 -4.79596 9307 ft 247 kts 187°
2026-04-21 17:58 37.17298 -4.79666 8977 ft 247 kts 187°
2026-04-21 17:59 37.15587 -4.79736 8652 ft 246 kts 187°
2026-04-21 17:59 37.13879 -4.79807 8325 ft 244 kts 187°
2026-04-21 17:59 37.12183 -4.79875 8008 ft 244 kts 186°
2026-04-21 17:59 37.10487 -4.79945 7688 ft 243 kts 186°
2026-04-21 18:00 37.08797 -4.80011 7364 ft 243 kts 186°
2026-04-21 18:00 37.07110 -4.80081 7039 ft 241 kts 186°
2026-04-21 18:00 37.05463 -4.80090 6977 ft 232 kts 184°
2026-04-21 18:00 37.03869 -4.80060 6975 ft 226 kts 184°
2026-04-21 18:01 37.02300 -4.80052 6975 ft 226 kts 184°
2026-04-21 18:01 37.00718 -4.80036 6951 ft 229 kts 184°
2026-04-21 18:01 36.99104 -4.80018 6796 ft 235 kts 184°
2026-04-21 18:01 36.97450 -4.80004 6581 ft 240 kts 184°
2026-04-21 18:02 36.95775 -4.79993 6330 ft 241 kts 183°
2026-04-21 18:02 36.94118 -4.79961 6080 ft 236 kts 181°
2026-04-21 18:02 36.92499 -4.79643 5830 ft 236 kts 169°
2026-04-21 18:02 36.90941 -4.78954 5589 ft 239 kts 165°
2026-04-21 18:03 36.89381 -4.78280 5351 ft 236 kts 165°
2026-04-21 18:03 36.87826 -4.77622 5110 ft 236 kts 165°
2026-04-21 18:03 36.86343 -4.76851 4987 ft 221 kts 156°
2026-04-21 18:03 36.85057 -4.75934 4987 ft 208 kts 156°
2026-04-21 18:04 36.83777 -4.75091 4816 ft 210 kts 157°
2026-04-21 18:04 36.82464 -4.74227 4449 ft 216 kts 155°
2026-04-21 18:04 36.81131 -4.73330 4052 ft 217 kts 154°
2026-04-21 18:04 36.79905 -4.72493 3686 ft 189 kts 153°
2026-04-21 18:05 36.78782 -4.71733 3358 ft 180 kts 153°
2026-04-21 18:05 36.77755 -4.70875 3029 ft 178 kts 136°
2026-04-21 18:05 36.77055 -4.69669 2979 ft 166 kts 121°
2026-04-21 18:05 36.76462 -4.68380 3003 ft 179 kts 120°
2026-04-21 18:06 36.75844 -4.66961 2911 ft 195 kts 119°
2026-04-21 18:06 36.75238 -4.65490 2654 ft 181 kts 118°
2026-04-21 18:06 36.74681 -4.64144 2439 ft 166 kts 118°
2026-04-21 18:06 36.74175 -4.62948 2232 ft 150 kts 117°
2026-04-21 18:07 36.73702 -4.61797 2034 ft 151 kts 117°
2026-04-21 18:07 36.73206 -4.60609 1836 ft 157 kts 116°
2026-04-21 18:07 36.72693 -4.59386 1637 ft 163 kts 117°
2026-04-21 18:07 36.72157 -4.58112 1409 ft 168 kts 117°
2026-04-21 18:08 36.71625 -4.56825 1180 ft 161 kts 117°
2026-04-21 18:08 36.71153 -4.55705 986 ft 133 kts 118°
2026-04-21 18:08 36.70760 -4.54762 814 ft 114 kts 118°
2026-04-21 18:08 36.70410 -4.53920 667 ft 106 kts 118°
2026-04-21 18:09 36.70087 -4.53148 541 ft 101 kts 118°
2026-04-21 18:09 36.69768 -4.52374 398 ft 95 kts 117°
2026-04-21 18:09 36.69467 -4.51688 270 ft 85 kts 119°
2026-04-21 18:09 36.69209 -4.51041 160 ft 85 kts 116°
2026-04-21 18:10 36.68949 -4.50406 53 ft 73 kts 117°
2026-04-21 18:10 36.68756 -4.49949 44 ft 53 kts 117°
2026-04-21 18:10 36.68578 -4.49528 45 ft 21 kts 120°
2026-04-21 18:10 36.68476 -4.49383 45 ft 40 kts 141°
2026-04-21 18:11 36.68334 -4.49289 47 ft 15 kts 178°
2026-04-21 18:11 36.68233 -4.49369 43 ft 22 kts 222°
2026-04-21 18:11 36.68088 -4.49518 43 ft 32 kts 227°
2026-04-21 18:11 36.67908 -4.49724 45 ft 36 kts 221°
2026-04-21 18:12 36.67796 -4.49846 47 ft 18 kts 187°
2026-04-21 18:12 36.67787 -4.49848 47 ft 0 kts 190°
2026-04-21 18:12 36.67768 -4.49862 47 ft 8 kts 215°
2026-04-21 18:12 36.67706 -4.49888 48 ft 11 kts 178°
2026-04-21 18:13 36.67636 -4.49820 47 ft 15 kts 129°
2026-04-21 18:13 36.67550 -4.49699 45 ft 23 kts 131°
2026-04-21 18:13 36.67431 -4.49534 42 ft 25 kts 128°
2026-04-21 18:13 36.67346 -4.49413 41 ft 22 kts 129°
2026-04-21 18:14 36.67110 -4.49085 41 ft 22 kts 127°
2026-04-21 18:14 36.66994 -4.48920 40 ft 29 kts 131°
2026-04-21 18:14 36.66880 -4.48759 36 ft 15 kts 130°
2026-04-21 18:15 36.66837 -4.48646 35 ft 16 kts 73°
2026-04-21 18:15 36.66849 -4.48505 31 ft 21 kts 105°
2026-04-21 18:15 36.66827 -4.48430 29 ft 4 kts 39°
2026-04-21 18:15 36.66831 -4.48426 29 ft 0 kts 43°
2026-04-21 18:16 36.66832 -4.48426 29 ft 1 kts 43°
2026-04-21 18:16 36.66837 -4.48420 28 ft 0 kts 40°